Temp
76 77 79 80 80 80 80 80 79 79 79 79 79 79 79 79 79 79 80 79 79 80 80 80 79 79 78 78 77 77 77 77 77 76 75 76 77 77 77 77 77 76 77
78 79 79 79 79 79 79 79 78 78 78 79 79 79 79 79 79 79 79 80 79 79 79 79 79 78 78 77 77 76 76 76 76 75 74 73 74 77 77 76 76 76 77
80 80 79 79 79 79 78 78 78 78 78 78 79 79 79 79 78 78 79 79 79 78 78 78 78 77 77 76 76 76 76 76 75 75 74 73 74 77 78 77 77 77 77
82 80 79 78 78 78 78 78 78 78 78 78 78 79 79 78 78 78 78 78 77 78 78 77 76 76 76 76 76 76 76 75 75 75 77 77 77 77 78 78 78 77 77
81 82 79 78 78 78 78 78 77 78 77 78 78 78 78 78 77 77 77 77 76 76 77 76 76 76 76 76 76 76 76 76 75 76 73 72 70 76 76 76 76 76 76
82 79 76 77 78 77 77 77 77 77 78 77 77 78 78 77 77 76 75 75 75 75 75 76 75 75 75 75 76 75 75 75 74 74 72 74 71 76 76 76 75 75 75
79 77 77 77 77 77 77 77 77 77 77 77 77 78 78 77 76 76 75 75 75 75 75 75 75 75 75 75 75 75 75 72 73 72 71 69 71 76 76 75 75 75 74
79 79 77 75 76 76 76 76 76 77 77 77 77 78 77 76 76 75 75 75 75 75 75 75 75 75 75 74 74 74 73 72 73 73 70 69 74 76 75 75 74 74 74
81 78 76 75 75 74 75 75 75 76 76 76 76 77 75 75 75 75 75 75 75 75 75 74 74 74 74 74 73 72 72 71 68 73 75 69 74 75 75 74 74 74 73
80 79 77 76 76 75 72 73 73 74 74 75 74 73 72 72 72 73 73 74 74 74 74 74 74 74 73 73 72 72 71 70 67 74 71 69 75 75 74 74 73 73 73
78 79 78 78 77 78 74 72 72 72 72 72 71 70 70 72 72 71 70 71 73 73 73 73 73 73 72 71 71 71 70 68 70 72 69 72 74 75 74 73 73 73 72
74 75 78 79 79 80 80 71 71 73 71 72 73 69 72 73 72 73 68 70 72 72 72 73 73 72 70 68 66 69 66 68 71 71 68 72 74 74 75 74 72 72 72
73 74 75 77 80 79 78 74 76 72 72 74 74 74 73 74 71 70 66 67 66 67 68 69 68 68 67 69 69 68 70 70 69 70 70 72 74 74 75 75 74 72 72
73 74 75 77 77 78 78 74 79 76 74 73 74 76 73 71 70 70 69 68 68 67 68 67 68 69 71 72 71 70 70 69 69 69 67 70 72 74 75 75 75 74 73
72 73 74 76 76 75 77 74 79 75 75 75 74 76 74 71 70 71 70 70 69 69 69 69 70 70 70 71 71 71 71 70 70 69 68 66 70 72 74 74 75 75 75
73 73 72 76 77 76 76 74 77 78 76 75 74 74 75 72 71 70 70 70 69 69 70 70 70 70 70 70 71 71 71 70 71 71 70 66 68 70 72 73 74 75 75
73 75 72 73 75 77 76 77 78 75 79 75 74 75 75 74 72 71 69 69 70 70 72 70 71 70 69 71 69 71 71 71 71 70 71 70 67 66 69 73 74 74 74
72 72 74 78 76 75 76 76 77 78 76 75 75 75 76 75 73 71 70 70 71 71 70 69 69 68 68 68 68 69 71 74 72 71 71 70 69 70 67 70 71 73 73
74 72 72 76 75 77 75 76 77 78 77 78 75 75 76 76 75 72 71 71 72 70 69 70 69 68 67 71 72 72 72 69 70 73 70 70 70 69 69 68 66 67 69
72 72 72 72 74 75 76 74 75 75 76 76 77 78 79 77 77 74 71 71 71 69 68 68 68 71 71 70 71 69 67 67 67 67 68 71 69 70 70 69 63 63 65
71 70 72 71 71 72 72 72 71 72 72 71 73 76 76 77 77 75 74 74 73 72 71 69 67 65 64 65 63 63 63 66 66 67 67 67 67 70 67 66 64 63 64
70 70 69 71 70 68 70 68 68 69 69 71 72 73 72 72 71 70 68 68 68 67 67 68 66 65 66 67 63 62 57 60 64 66 65 67 66 66 66 65 64 63 61
68 68 69 69 70 71 69 68 66 65 65 65 67 67 67 67 66 65 66 66 65 65 64 64 64 63 62 63 65 62 56 53 57 62 63 63 64 63 62 64 65 63 61
67 67 68 68 68 67 66 66 64 63 62 63 63 63 63 64 63 63 63 62 61 62 61 62 65 62 61 59 60 62 61 59 54 53 58 59 61 62 63 64 64 63 58
64 64 65 65 65 64 64 64 63 63 61 61 61 61 61 60 60 60 60 60 59 59 59 59 59 58 58 57 56 59 61 58 57 54 51 54 58 60 61 62 60 57 56
60 60 62 62 62 63 63 63 63 61 59 58 58 59 59 59 58 58 59 58 58 58 57 57 57 57 56 58 59 59 59 57 56 55 54 55 55 57 58 58 57 56 55
MSLP
1013.02 1013.37 1014.04 1014.55 1015.01 1015.38 1015.64 1015.87 1016.19 1016.44 1016.65 1016.81 1016.93 1017.14 1017.25 1017.37 1017.48 1017.49 1017.59 1017.58 1017.66 1017.82 1018.20 1018.32 1018.61 1018.79 1018.93 1019.09 1019.18 1019.26 1019.29 1019.19 1019.16 1019.23 1019.33 1019.37 1019.28 1019.26 1019.14 1019.20 1019.28 1019.37 1019.34
1012.49 1013.34 1014.03 1014.52 1015.03 1015.41 1015.77 1016.10 1016.46 1016.66 1016.88 1017.14 1017.24 1017.45 1017.60 1017.72 1017.91 1017.91 1017.98 1018.07 1018.20 1018.38 1018.66 1018.77 1019.01 1019.18 1019.29 1019.49 1019.52 1019.58 1019.48 1019.54 1019.69 1019.68 1019.53 1019.58 1019.58 1019.34 1019.36 1019.56 1019.62 1019.59 1019.57
1012.44 1013.32 1014.09 1014.62 1015.09 1015.48 1015.82 1016.24 1016.58 1016.85 1017.05 1017.36 1017.51 1017.75 1017.87 1018.05 1018.22 1018.35 1018.41 1018.50 1018.68 1018.81 1019.03 1019.24 1019.38 1019.58 1019.71 1019.86 1019.85 1019.83 1019.73 1019.83 1019.93 1019.93 1019.85 1019.70 1019.86 1019.75 1019.66 1019.81 1019.80 1019.67 1019.73
1012.24 1013.38 1014.10 1014.74 1015.20 1015.61 1015.95 1016.30 1016.63 1016.95 1017.22 1017.51 1017.74 1017.93 1018.15 1018.38 1018.59 1018.72 1018.80 1018.93 1019.15 1019.27 1019.42 1019.66 1019.77 1019.93 1020.04 1020.12 1020.07 1020.09 1019.96 1019.97 1019.88 1019.71 1019.72 1019.92 1020.08 1020.25 1020.11 1020.04 1019.99 1019.94 1019.78
1012.52 1013.26 1014.23 1014.80 1015.36 1015.79 1016.11 1016.47 1016.85 1017.11 1017.38 1017.66 1017.92 1018.14 1018.41 1018.74 1018.92 1019.05 1019.21 1019.42 1019.52 1019.74 1019.89 1020.01 1020.09 1020.17 1020.29 1020.32 1020.29 1020.23 1020.24 1020.16 1020.02 1019.91 1020.21 1020.46 1020.59 1020.63 1020.60 1020.56 1020.56 1020.42 1020.27
1012.56 1013.51 1014.48 1015.05 1015.53 1015.97 1016.26 1016.62 1017.02 1017.37 1017.54 1017.77 1018.09 1018.30 1018.56 1018.96 1019.25 1019.44 1019.63 1019.82 1019.87 1020.06 1020.21 1020.29 1020.36 1020.44 1020.52 1020.57 1020.55 1020.40 1020.40 1020.23 1019.93 1020.19 1020.54 1020.77 1020.94 1020.91 1020.91 1020.93 1020.86 1020.78 1020.72
1012.97 1013.89 1014.75 1015.31 1015.77 1016.14 1016.45 1016.80 1017.15 1017.54 1017.75 1017.94 1018.18 1018.45 1018.68 1019.11 1019.52 1019.74 1019.97 1020.11 1020.18 1020.27 1020.41 1020.48 1020.60 1020.74 1020.79 1020.81 1020.83 1020.72 1020.56 1020.48 1020.43 1020.47 1020.73 1021.05 1021.17 1021.13 1021.16 1021.20 1021.17 1021.12 1021.02
1013.14 1014.08 1014.93 1015.60 1016.06 1016.43 1016.84 1017.06 1017.38 1017.70 1017.91 1018.13 1018.28 1018.49 1018.85 1019.28 1019.67 1019.87 1020.14 1020.23 1020.38 1020.49 1020.58 1020.71 1020.81 1020.99 1021.00 1021.06 1021.05 1021.04 1020.83 1020.73 1020.72 1020.50 1020.80 1021.12 1021.18 1021.24 1021.33 1021.36 1021.41 1021.38 1021.31
1013.22 1014.25 1015.14 1015.86 1016.31 1016.75 1017.13 1017.41 1017.62 1017.92 1018.08 1018.32 1018.49 1018.64 1018.98 1019.29 1019.69 1019.94 1020.24 1020.30 1020.50 1020.65 1020.75 1020.95 1021.06 1021.17 1021.21 1021.28 1021.26 1021.27 1021.04 1020.84 1020.91 1020.56 1020.96 1021.12 1021.20 1021.31 1021.44 1021.50 1021.52 1021.52 1021.56
1013.75 1014.32 1015.18 1015.98 1016.41 1016.87 1017.31 1017.68 1017.91 1018.14 1018.26 1018.51 1018.76 1018.89 1019.33 1019.52 1019.72 1020.00 1020.26 1020.42 1020.62 1020.83 1020.92 1021.04 1021.20 1021.28 1021.34 1021.39 1021.34 1021.36 1021.19 1020.95 1020.97 1020.55 1020.96 1021.07 1021.20 1021.34 1021.49 1021.60 1021.60 1021.62 1021.66
1014.12 1014.62 1015.08 1015.75 1016.24 1016.62 1017.25 1017.82 1018.13 1018.34 1018.47 1018.78 1019.05 1019.17 1019.35 1019.46 1019.76 1020.05 1020.28 1020.48 1020.71 1020.90 1021.08 1021.17 1021.29 1021.39 1021.45 1021.47 1021.32 1021.30 1021.20 1021.06 1020.85 1020.57 1021.02 1021.06 1021.20 1021.29 1021.40 1021.59 1021.66 1021.73 1021.77
1014.45 1014.96 1015.23 1015.42 1015.93 1016.28 1016.90 1017.70 1018.08 1018.41 1018.63 1018.70 1018.96 1019.17 1019.13 1019.26 1019.62 1020.07 1020.42 1020.51 1020.70 1020.92 1021.02 1021.12 1021.18 1021.25 1021.26 1021.32 1021.37 1021.25 1021.18 1021.05 1020.64 1020.66 1020.94 1020.97 1021.09 1021.22 1021.18 1021.37 1021.57 1021.67 1021.76
1014.79 1015.19 1015.40 1015.52 1015.72 1016.11 1016.70 1017.32 1017.63 1018.13 1018.20 1018.35 1018.53 1018.66 1018.71 1018.93 1019.56 1019.93 1020.33 1020.41 1020.56 1020.73 1020.81 1020.89 1020.98 1020.99 1020.96 1020.94 1020.99 1020.98 1020.90 1020.72 1020.73 1020.64 1020.71 1020.84 1020.89 1021.06 1021.08 1021.09 1021.29 1021.51 1021.64
1014.81 1015.27 1015.50 1015.46 1015.79 1016.13 1016.49 1016.77 1016.99 1017.37 1017.63 1017.87 1018.09 1018.26 1018.55 1018.86 1019.26 1019.55 1019.89 1020.01 1020.13 1020.26 1020.17 1020.44 1020.62 1020.62 1020.52 1020.43 1020.58 1020.66 1020.58 1020.62 1020.65 1020.56 1020.69 1020.73 1020.75 1020.84 1020.93 1020.96 1020.98 1021.11 1021.36
1014.83 1015.14 1015.45 1015.53 1015.88 1016.14 1016.33 1016.40 1016.46 1016.85 1017.24 1017.52 1017.90 1018.16 1018.47 1018.87 1019.11 1019.19 1019.35 1019.53 1019.74 1019.82 1019.85 1019.98 1020.02 1020.10 1020.16 1020.20 1020.25 1020.31 1020.37 1020.36 1020.37 1020.33 1020.37 1020.44 1020.56 1020.63 1020.74 1020.77 1020.78 1020.80 1020.91
1014.85 1014.80 1015.21 1015.50 1015.58 1016.05 1016.32 1016.35 1016.35 1016.57 1016.90 1017.33 1017.77 1018.15 1018.36 1018.69 1018.94 1019.08 1019.22 1019.37 1019.52 1019.60 1019.73 1019.79 1019.90 1019.96 1020.02 1020.02 1020.09 1020.01 1020.05 1020.02 1020.01 1019.97 1020.00 1020.25 1020.28 1020.38 1020.46 1020.60 1020.63 1020.59 1020.62
1014.58 1014.73 1015.24 1015.43 1015.46 1015.86 1016.17 1016.29 1016.31 1016.51 1016.59 1017.13 1017.64 1017.98 1018.34 1018.60 1018.81 1019.08 1019.27 1019.42 1019.43 1019.48 1019.57 1019.64 1019.68 1019.76 1019.94 1019.91 1020.11 1019.84 1019.77 1019.69 1019.69 1019.68 1019.70 1019.70 1019.84 1019.95 1020.10 1020.21 1020.34 1020.41 1020.42
1014.32 1014.70 1014.80 1015.02 1015.57 1015.86 1016.09 1016.21 1016.27 1016.18 1016.53 1016.91 1017.34 1017.72 1018.06 1018.35 1018.61 1018.92 1019.20 1019.26 1019.19 1019.32 1019.46 1019.65 1019.89 1019.93 1019.98 1019.98 1019.90 1019.73 1019.50 1019.27 1019.34 1019.33 1019.32 1019.33 1019.39 1019.48 1019.68 1019.74 1019.85 1019.99 1020.11
1013.83 1014.28 1014.60 1014.91 1015.29 1015.42 1015.76 1015.97 1016.04 1016.09 1016.29 1016.62 1017.01 1017.36 1017.68 1017.99 1018.32 1018.71 1018.95 1019.05 1019.02 1019.21 1019.35 1019.61 1019.74 1019.82 1019.93 1019.77 1019.67 1019.51 1019.34 1019.36 1019.24 1019.12 1019.10 1019.07 1019.09 1019.09 1019.05 1019.17 1019.59 1019.80 1020.01
1013.65 1014.01 1014.34 1014.79 1014.95 1015.14 1015.53 1015.82 1016.11 1016.12 1016.26 1016.42 1016.66 1016.91 1017.18 1017.56 1017.92 1018.29 1018.66 1018.83 1018.89 1019.10 1019.37 1019.45 1019.60 1019.57 1019.68 1019.69 1019.71 1019.68 1019.52 1019.44 1019.19 1019.11 1018.91 1018.74 1018.86 1018.78 1018.90 1019.17 1019.56 1019.79 1019.85
1013.72 1014.11 1014.43 1014.74 1014.92 1015.19 1015.38 1015.81 1016.15 1016.45 1016.55 1016.74 1016.69 1016.88 1017.12 1017.42 1017.82 1018.21 1018.44 1018.57 1018.74 1019.11 1019.33 1019.49 1019.62 1019.76 1019.80 1019.75 1019.95 1019.89 1019.60 1019.31 1019.13 1018.79 1018.49 1018.61 1018.72 1018.59 1018.91 1019.21 1019.61 1019.81 1019.88
1013.79 1014.09 1014.47 1014.47 1014.84 1015.23 1015.34 1015.89 1016.24 1016.44 1016.53 1016.67 1016.74 1017.07 1017.53 1017.89 1018.28 1018.53 1018.77 1019.08 1019.27 1019.42 1019.53 1019.71 1019.90 1020.02 1019.93 1019.85 1020.02 1020.10 1019.84 1019.45 1018.90 1018.42 1018.40 1018.62 1018.62 1018.85 1019.12 1019.45 1019.71 1019.95 1020.15
1013.73 1013.99 1014.40 1014.61 1014.72 1015.08 1015.53 1015.94 1016.37 1016.68 1016.97 1017.13 1017.24 1017.73 1018.07 1018.46 1018.80 1019.08 1019.24 1019.32 1019.44 1019.56 1019.79 1019.84 1019.96 1020.14 1020.21 1020.00 1019.97 1020.23 1020.05 1019.93 1019.51 1018.90 1018.77 1018.80 1018.89 1018.98 1019.26 1019.33 1019.68 1019.99 1020.28
1013.53 1013.98 1014.32 1014.69 1014.95 1015.25 1015.62 1015.94 1016.38 1016.80 1017.22 1017.48 1017.57 1018.10 1018.57 1018.86 1019.20 1019.39 1019.48 1019.63 1019.71 1019.73 1019.81 1019.87 1019.81 1020.04 1020.18 1020.22 1020.11 1019.96 1019.99 1020.09 1020.11 1019.88 1019.33 1019.24 1019.04 1019.19 1019.46 1019.43 1019.78 1020.17 1020.48
1013.36 1013.74 1014.36 1014.82 1015.21 1015.55 1015.81 1016.11 1016.58 1017.05 1017.40 1017.67 1018.00 1018.41 1018.85 1019.14 1019.37 1019.59 1019.72 1019.74 1019.82 1019.88 1019.93 1020.05 1020.01 1020.23 1020.21 1020.28 1020.31 1020.23 1020.18 1020.04 1020.09 1020.22 1020.11 1019.91 1019.61 1019.62 1019.60 1019.76 1020.23 1020.55 1020.91
1013.65 1014.22 1014.32 1015.05 1015.39 1015.66 1015.84 1016.11 1016.56 1017.08 1017.52 1017.99 1018.39 1018.72 1018.94 1019.23 1019.49 1019.66 1019.82 1019.98 1020.04 1020.12 1020.26 1020.30 1020.21 1020.22 1020.22 1020.17 1020.21 1020.24 1020.29 1020.24 1020.03 1020.09 1020.15 1020.12 1020.21 1020.04 1019.97 1020.36 1020.59 1020.85 1021.38
Wind_Speed
13 14 17 18 17 16 14 14 14 13 12 13 13 14 15 17 16 16 16 17 18 19 18 19 18 18 17 17 16 15 13 13 13 15 14 13 14 14 15 17 15 9 13
18 15 16 16 17 15 15 15 13 12 12 12 14 15 16 16 15 15 15 16 17 17 17 17 17 17 16 15 14 12 10 9 9 8 12 13 11 15 11 13 12 9 12
18 16 14 15 16 15 17 16 14 12 13 12 12 15 15 16 15 15 15 16 15 17 16 16 16 15 14 13 12 9 7 7 4 2 4 5 11 18 18 13 11 11 11
18 15 14 15 16 17 17 16 14 13 13 11 10 14 14 16 15 15 15 15 15 15 15 15 14 13 12 11 9 8 7 6 6 7 8 9 11 15 16 14 15 18 15
17 15 14 16 17 16 16 15 14 14 13 12 10 10 14 15 14 15 14 14 14 14 14 14 14 13 12 11 7 7 8 8 8 4 9 9 6 11 13 13 13 15 16
14 15 15 16 16 14 16 15 14 13 13 13 10 9 15 16 14 14 14 13 13 13 13 13 13 12 12 10 7 7 7 10 7 8 8 11 6 12 13 12 12 11 12
17 15 14 16 15 13 14 14 12 12 13 13 12 10 15 17 14 14 13 12 12 12 12 12 12 11 10 10 8 7 9 12 7 6 8 7 6 11 12 12 12 12 12
18 15 14 14 14 13 12 12 10 11 12 12 11 11 18 16 14 14 12 12 11 11 11 10 10 9 9 8 7 6 8 9 7 5 7 5 8 10 10 11 11 11 11
16 15 12 11 11 12 10 9 10 10 9 9 10 10 14 15 14 13 11 11 10 10 9 8 7 7 7 6 5 5 7 9 5 3 7 4 7 7 8 8 9 10 10
12 14 11 11 9 8 6 10 10 9 6 9 9 10 10 11 12 12 10 9 9 8 7 6 5 4 3 2 2 2 6 9 5 3 4 4 6 4 5 6 7 8 8
10 11 11 11 10 10 9 7 9 9 9 10 8 11 10 5 6 8 8 9 8 7 5 4 3 1 2 4 4 5 7 4 6 1 3 8 5 2 2 2 4 5 6
10 6 9 10 8 8 9 7 7 7 5 5 6 6 5 4 5 9 7 9 7 6 6 5 5 5 6 4 3 7 3 5 2 0 3 8 5 2 3 3 1 1 3
6 5 5 5 9 6 10 5 5 4 4 5 8 7 6 6 5 5 4 4 4 7 4 5 5 4 5 5 3 4 4 2 3 2 6 9 6 4 5 5 5 4 2
7 6 8 6 7 5 4 4 7 5 5 4 4 6 4 2 4 4 4 5 5 4 6 6 4 6 6 4 6 5 3 3 2 2 4 8 7 6 7 7 7 7 6
8 6 8 7 6 5 4 4 3 4 4 4 5 3 3 3 4 3 3 3 3 3 1 2 3 3 3 5 4 4 5 5 5 3 2 9 9 8 8 9 10 9 9
6 8 7 7 8 8 5 5 2 4 5 5 5 4 2 2 2 2 2 2 2 3 3 3 3 3 3 3 4 4 5 4 5 5 4 5 11 10 10 10 11 12 11
8 7 9 8 6 9 7 5 3 4 5 5 4 6 5 3 3 3 2 3 4 3 5 2 2 2 2 3 4 5 5 6 4 4 3 4 5 10 10 11 12 13 13
6 7 6 6 7 9 5 5 4 3 4 4 5 5 7 6 5 4 3 2 3 3 3 2 3 3 3 4 3 4 4 3 4 5 5 4 3 4 8 11 12 13 13
8 9 8 8 9 8 8 6 5 5 5 4 4 4 7 6 7 5 3 3 4 2 2 3 3 3 3 4 3 3 3 3 4 4 5 4 4 4 4 6 10 8 9
3 5 7 5 6 6 6 5 3 2 0 1 3 4 6 5 6 5 3 3 2 2 3 2 4 4 2 3 3 4 4 4 4 5 4 3 4 5 4 5 2 3 10
1 1 8 7 6 3 3 4 3 3 3 1 1 3 5 4 2 1 2 2 3 3 3 3 2 3 3 2 2 3 4 6 6 6 4 4 3 3 5 5 3 3 3
6 5 6 6 7 4 3 2 2 1 2 2 2 4 7 7 7 5 4 4 4 3 4 4 3 2 1 1 2 2 3 4 4 4 3 2 1 4 5 5 5 5 5
6 6 5 4 3 5 2 5 3 3 0 2 2 3 5 6 5 5 3 2 3 2 3 2 1 2 4 2 4 3 3 3 2 2 2 1 2 3 4 4 4 5 6
8 7 5 5 4 3 3 4 4 3 3 1 3 4 4 6 5 5 4 4 3 2 2 3 2 2 2 3 2 3 5 2 2 3 3 1 2 3 2 2 5 7 7
8 9 7 7 6 5 4 4 4 3 4 3 3 6 5 5 5 5 4 3 3 3 3 3 4 4 2 2 2 2 4 3 3 4 3 4 2 2 3 5 6 6 7
7 4 8 8 6 7 7 6 6 7 6 4 3 3 3 3 4 4 4 4 4 4 4 4 4 3 3 3 3 4 4 3 2 3 4 4 3 1 3 4 5 6 6
Wind_Direction
131 138 140 140 139 134 132 123 110 108 102 92 94 85 82 78 73 74 76 77 82 83 88 88 85 81 80 79 79 77 79 85 88 89 82 64 56 49 46 46 60 53 54
132 140 142 143 139 137 127 112 108 101 100 98 94 88 86 83 81 80 82 87 85 88 89 88 84 82 81 81 81 80 84 83 77 84 104 80 50 49 69 62 58 56 54
133 136 144 138 138 130 120 117 113 106 97 102 104 101 93 86 83 86 86 87 89 90 88 86 83 82 82 82 80 79 68 60 66 127 249 98 57 44 73 71 56 51 54
130 142 140 139 134 126 125 123 116 114 112 110 107 111 99 89 86 89 89 90 87 91 92 85 79 79 83 84 76 68 50 25 351 1 51 55 61 49 50 58 52 47 59
130 147 132 134 130 131 130 126 122 118 120 119 115 107 106 92 91 91 92 94 93 94 89 82 78 79 80 80 73 55 32 358 350 31 64 60 49 51 52 49 42 40 47
140 115 128 131 131 133 134 131 126 122 125 127 122 113 121 103 97 98 98 101 100 96 93 87 82 83 82 82 74 45 20 354 4 69 79 66 56 56 54 51 48 47 45
116 121 124 128 127 125 131 130 129 128 128 131 125 122 123 108 106 104 101 102 101 99 95 88 81 79 81 81 70 36 3 359 7 71 83 78 61 57 52 50 46 44 44
123 126 130 123 121 119 120 123 126 132 131 134 132 123 125 117 114 109 109 106 104 102 98 89 84 80 79 78 65 27 357 350 351 78 105 94 75 63 55 51 47 45 45
120 124 123 124 120 113 112 114 122 128 130 139 142 135 137 130 127 116 117 112 107 104 100 96 91 86 81 76 64 20 338 323 345 47 117 105 81 67 57 52 46 43 43
128 126 138 135 140 132 127 120 115 108 146 146 135 121 124 126 126 125 125 117 116 113 110 107 100 93 87 93 87 330 301 305 290 206 107 113 102 80 63 50 45 43 41
121 138 142 148 154 149 126 126 122 114 110 121 127 146 152 150 153 150 131 126 125 129 129 125 125 137 233 238 216 236 265 275 261 79 115 128 121 105 95 66 46 40 43
122 126 147 156 156 154 135 156 143 148 162 163 155 181 200 167 131 132 133 138 145 155 163 176 188 220 244 239 230 238 253 265 319 35 140 144 144 214 270 207 202 39 45
142 127 164 148 164 175 135 179 154 166 187 187 170 192 212 128 141 148 150 164 173 194 189 196 205 219 232 229 172 229 224 358 301 286 153 162 164 217 255 269 224 231 240
159 169 167 168 151 157 154 182 165 171 178 157 161 184 116 125 153 187 167 181 186 181 204 188 190 216 209 210 227 243 268 214 259 281 164 171 181 214 245 259 260 235 236
171 175 179 163 156 162 162 230 178 143 152 156 146 167 148 165 163 182 176 159 182 192 218 210 200 244 218 235 237 224 241 244 236 233 187 185 198 208 233 249 256 258 241
169 172 205 178 169 170 174 224 251 146 168 145 140 155 157 157 163 146 158 176 170 172 229 211 222 211 242 233 247 249 248 246 245 233 213 190 198 211 220 243 255 258 258
222 191 199 185 186 168 164 200 214 238 146 138 149 159 169 181 169 153 223 186 198 205 216 238 266 303 296 287 269 259 252 249 255 266 244 224 199 208 213 233 249 257 261
187 186 193 190 171 174 184 180 228 231 139 148 168 163 172 175 178 178 199 237 224 193 184 225 236 247 242 238 247 257 261 251 253 254 259 252 229 198 213 225 233 247 255
193 192 185 176 186 171 170 180 207 246 153 178 172 171 169 182 177 181 205 219 221 206 210 212 244 223 248 267 270 285 284 293 294 288 277 284 278 239 214 196 230 238 253
216 182 160 191 182 174 156 170 189 147 185 231 184 186 179 179 180 172 195 242 248 226 236 244 241 249 250 269 306 301 297 290 272 264 260 277 279 279 93 88 108 254 249
215 220 170 177 207 176 175 167 164 175 181 245 314 35 36 58 89 121 200 255 274 239 251 269 315 329 319 315 335 296 277 263 258 247 224 234 277 47 84 66 32 4 12
183 192 223 188 195 217 157 154 152 162 161 195 172 96 54 38 37 45 37 39 33 8 10 359 33 337 312 295 267 281 291 315 277 267 169 162 135 106 87 77 51 43 35
182 168 178 167 201 166 188 111 96 70 70 62 90 92 70 55 50 44 31 39 354 335 290 290 298 262 270 281 238 230 301 248 342 342 359 29 67 101 123 139 123 94 64
172 146 142 126 112 85 85 114 143 148 155 88 93 100 93 77 73 51 36 33 14 337 317 296 294 266 319 265 301 252 253 245 259 307 340 348 61 69 74 25 100 77 67
152 149 152 146 145 138 154 161 154 128 111 107 94 108 120 109 90 67 45 22 21 15 358 355 351 350 282 241 284 315 283 259 249 245 253 298 6 36 66 60 77 75 64
125 158 146 154 155 163 156 142 143 142 131 122 127 140 150 131 123 98 44 30 9 16 12 346 330 278 272 305 288 274 262 266 263 218 226 229 243 299 68 64 76 71 56